Dewpoint
53 53 53 54 55 56 56 56 57 57 57 58 58 58 59 59 59 52 39 52 56 73 72 66 62 59 63 63 65 62 56 52 50 53 58 62 58 59 60 60 59 60 61 62 66
53 53 53 54 55 55 56 56 56 57 57 57 58 58 59 60 51 38 50 72 74 73 63 60 56 56 55 57 58 58 51 48 52 54 59 61 58 57 58 58 59 58 60 64 65
52 52 53 53 53 55 55 56 56 56 56 57 57 58 59 59 36 31 71 74 74 73 59 52 52 53 47 41 52 50 45 49 49 53 57 58 56 58 58 57 59 58 60 64 64
52 52 53 53 53 54 55 55 55 56 56 56 57 58 60 52 22 46 71 73 74 66 59 53 51 46 36 29 46 41 44 47 48 56 55 55 56 57 58 59 60 59 62 63 63
52 52 53 53 53 53 54 54 55 55 55 56 57 59 47 28 25 48 71 72 65 59 55 50 48 43 27 25 31 43 46 47 48 52 54 55 55 57 58 59 59 60 62 63 62
52 53 54 54 54 54 54 54 54 54 55 55 57 60 46 8 15 51 58 59 55 53 46 46 41 36 26 25 29 41 43 45 45 52 53 53 57 58 59 60 59 61 62 61 60
53 53 54 54 54 54 54 54 54 54 54 55 56 54 44 9 20 18 36 48 47 48 44 42 40 27 26 24 26 34 42 46 45 50 52 53 54 57 60 59 59 59 61 59 59
53 53 54 54 53 53 53 53 53 54 55 56 57 52 32 24 23 16 13 13 18 40 39 38 37 28 28 26 24 28 46 42 48 48 51 49 51 57 60 58 58 59 59 59 59
54 54 53 53 53 52 52 52 54 55 55 58 49 46 24 38 25 17 9 14 19 29 32 28 28 25 24 22 23 37 39 39 48 51 49 52 52 54 58 57 56 57 57 57 59
54 54 53 53 52 52 51 52 53 54 51 50 44 34 26 18 22 19 13 13 19 21 22 28 25 23 23 22 20 30 45 46 42 47 48 46 48 50 57 57 56 56 57 56 58
53 53 53 52 52 51 49 34 17 16 17 20 34 31 25 21 19 15 14 16 18 21 19 22 20 20 22 23 23 25 43 45 45 46 43 41 45 50 51 57 57 57 57 57 56
53 52 52 52 51 50 47 17 17 16 14 16 17 18 20 17 12 15 12 14 15 14 15 19 18 21 24 24 23 32 45 45 45 44 46 46 45 46 49 54 57 57 57 56 55
53 52 52 51 50 40 34 27 22 23 18 19 18 16 15 13 9 5 7 17 14 11 12 11 14 16 17 19 22 24 42 43 41 44 46 49 43 47 50 53 55 57 58 57 56
53 52 52 50 36 39 34 33 31 20 18 17 16 15 10 1 -0 -2 5 12 17 14 16 12 13 14 14 16 19 19 32 39 42 39 38 44 37 48 49 52 54 55 57 57 57
53 52 52 50 42 39 35 36 28 21 -6 9 6 10 7 -0 -1 -2 -0 6 11 11 13 14 16 14 14 14 16 19 22 32 39 40 38 38 38 39 50 50 52 54 56 57 57
52 52 52 44 41 40 37 33 21 13 4 11 9 11 9 2 0 1 -2 3 6 6 5 9 15 16 15 13 13 16 19 22 22 27 30 34 30 29 51 50 52 54 56 57 57
52 51 50 44 34 33 36 25 12 10 11 7 7 8 11 8 -0 -3 -1 -3 -6 -4 -4 5 8 11 16 12 11 11 17 15 16 17 18 22 29 28 49 52 53 55 55 57 58
51 51 48 45 45 40 28 19 13 12 11 12 13 8 12 11 7 4 1 -2 -0 1 3 -3 2 12 14 14 11 10 12 16 14 17 16 34 33 43 49 54 54 55 55 55 57
51 41 38 36 42 36 22 17 15 17 16 14 12 9 12 12 12 10 6 2 -0 -5 -7 3 9 15 13 13 12 10 13 14 15 19 20 38 40 41 47 54 54 54 54 55 55
46 40 38 39 36 27 21 22 17 18 17 15 12 11 9 9 9 9 11 16 17 16 8 -0 2 9 13 14 13 10 12 16 16 13 14 32 40 39 46 49 54 55 53 54 55
41 37 37 34 27 22 18 18 18 18 17 10 10 7 8 9 9 8 14 17 17 17 25 17 1 0 7 13 13 13 9 19 13 17 14 27 37 41 43 47 48 50 49 50 55
37 32 35 29 25 25 19 20 26 19 21 15 14 13 11 10 9 9 14 14 15 22 21 28 19 1 -0 8 12 12 10 9 9 11 21 21 22 41 42 43 45 45 46 48 49
36 37 38 27 21 21 22 20 21 22 21 19 16 16 17 16 14 13 12 14 26 32 37 32 19 20 13 12 14 9 10 11 14 16 11 19 23 40 44 46 46 45 49 52 48
36 34 32 28 27 25 22 22 20 21 21 21 16 15 15 15 17 15 25 25 27 32 45 32 20 23 15 15 25 25 24 23 14 16 14 21 21 41 42 43 46 50 52 52 53
39 36 33 30 30 29 29 23 20 17 18 22 21 27 25 16 24 26 27 27 26 34 27 29 26 29 29 29 29 25 24 24 21 12 13 14 21 34 42 50 55 57 56 52 50
35 35 35 32 31 28 29 23 22 19 23 27 27 30 26 25 26 23 24 25 26 25 25 28 26 29 28 30 28 25 25 26 25 19 17 17 29 45 46 52 55 59 58 59 56
40 40 36 34 31 29 27 28 28 28 27 24 27 28 24 24 26 25 23 24 25 24 23 27 25 25 26 30 29 23 25 25 25 29 18 14 27 48 46 50 55 57 59 58 58
Lifted_Index
16 16 15 15 14 14 14 13 13 13 12 12 11 11 10 8 5 3 2 1 -1 -3 -4 -4 -3 -3 -2 -2 -2 -2 -1 -1 -1 -1 -2 -2 -2 -2 -2 -2 -1 -0 0 0 -0
16 16 16 15 15 14 14 14 13 13 12 12 11 11 10 8 5 2 1 0 -2 -3 -3 -3 -3 -2 -2 -1 -1 -1 -1 -1 -1 -2 -2 -2 -2 -2 -2 -2 -1 -1 -0 -0 -0
16 16 16 15 15 15 14 14 14 13 13 12 12 11 10 8 4 2 0 -1 -2 -3 -2 -2 -2 -2 -0 1 -0 -1 -0 -1 -1 -2 -2 -2 -2 -2 -2 -2 -1 -1 -1 -1 -1
16 16 16 16 15 15 15 14 14 14 14 13 12 11 10 7 4 2 -0 -2 -2 -2 -2 -1 -1 -0 2 2 1 -0 -0 -1 -1 -1 -1 -2 -2 -3 -2 -2 -1 -1 -0 -1 -1
17 17 16 16 15 15 15 15 14 14 14 14 13 11 9 7 4 3 1 -1 -1 -1 -1 -1 -0 2 3 3 1 0 -0 -1 -1 -1 -1 -2 -2 -2 -2 -1 -1 -0 0 0 -0
17 17 17 16 16 15 15 15 15 14 14 14 12 11 9 6 5 4 2 1 1 1 0 0 1 2 4 3 2 1 -0 -1 -1 -2 -2 -2 -2 -2 -2 -2 -1 0 1 1 0
17 17 17 17 16 16 16 15 15 14 14 13 12 10 8 6 6 6 5 3 2 2 1 1 2 3 3 3 3 2 0 -1 -2 -2 -2 -2 -2 -2 -2 -2 -1 0 1 1 1
16 16 16 17 17 17 16 15 15 14 13 12 11 10 9 8 8 7 6 4 3 2 2 2 3 3 3 3 3 2 0 -1 -1 -2 -2 -1 -1 -2 -2 -2 -1 0 0 0 1
15 15 16 16 17 17 16 15 14 13 12 11 11 10 9 8 8 7 6 5 4 3 3 3 4 3 3 2 2 1 0 -1 -1 -1 -1 -1 -1 -1 -2 -2 -2 -0 0 0 0
14 14 15 15 16 16 15 14 13 13 12 11 11 10 9 8 8 8 7 6 5 4 3 3 3 3 2 2 1 1 0 -1 -1 -0 -0 -0 -0 -1 -1 -2 -2 -1 -1 -0 -0
13 13 13 14 14 14 13 13 13 12 11 11 10 10 9 9 9 8 8 7 6 5 3 3 3 2 2 2 2 1 1 -1 -1 -0 0 0 0 0 -1 -2 -2 -2 -2 -1 -1
12 12 12 12 13 12 11 12 13 12 11 10 10 10 9 9 9 8 8 7 6 5 4 4 3 3 2 2 2 2 1 -0 -0 0 0 0 0 0 -0 -1 -2 -3 -2 -2 -2
11 11 11 11 11 10 10 11 12 12 9 7 8 8 8 8 8 8 8 7 6 5 5 4 4 3 3 2 2 2 2 1 0 0 0 0 0 -0 -1 -1 -2 -3 -2 -2 -2
10 10 10 11 10 10 9 10 11 10 7 5 6 7 7 8 7 7 7 7 6 5 5 5 4 4 3 3 2 2 2 1 0 -0 0 0 -0 -0 -1 -2 -2 -2 -2 -2 -2
9 9 10 10 10 9 9 9 9 7 4 4 5 6 7 7 7 7 7 7 6 6 5 5 5 4 4 3 3 2 2 2 0 -0 0 0 0 0 -1 -2 -2 -2 -2 -2 -2
8 8 9 9 10 9 9 8 7 4 3 3 4 5 6 6 6 6 6 7 6 6 6 6 6 5 5 4 3 2 2 2 1 0 1 1 1 0 -1 -2 -2 -2 -2 -1 -1
8 8 8 8 9 9 8 7 4 3 2 3 4 4 4 5 5 5 6 6 6 6 5 5 5 5 5 4 3 2 2 1 1 1 1 1 0 -0 -1 -2 -2 -2 -2 -1 -1
7 7 7 8 8 8 7 5 3 2 3 3 3 3 3 3 4 4 4 5 6 6 5 5 5 5 5 4 3 3 2 1 1 1 1 0 -1 -1 -2 -2 -3 -3 -2 -1 -1
7 7 7 7 8 8 6 4 3 3 4 4 3 2 1 2 3 3 3 4 4 5 5 5 4 5 4 4 3 3 2 2 1 1 0 -0 -1 -2 -3 -3 -3 -3 -2 -1 -1
7 6 6 7 7 7 6 5 4 5 5 5 4 2 1 1 2 2 3 3 3 4 5 5 5 5 4 3 3 3 2 2 1 1 0 -0 -1 -2 -2 -3 -3 -2 -2 -1 -0
7 6 6 6 7 6 6 5 6 6 6 6 5 4 3 2 2 2 3 3 3 4 4 5 5 4 4 3 3 2 2 2 1 1 1 0 -0 -1 -2 -2 -2 -1 -0 -0 0
7 6 6 6 6 6 6 6 6 6 6 6 6 6 5 3 2 2 3 4 4 4 4 4 4 4 4 3 3 2 2 2 1 1 1 1 0 -0 -1 -1 -1 -0 0 1 1
6 6 6 6 6 6 6 6 6 5 5 6 6 6 6 4 3 3 4 5 4 4 3 4 5 4 3 3 3 2 2 2 1 1 1 1 1 0 -0 -0 -0 -0 0 0 1
6 5 5 5 5 5 5 5 5 5 5 5 5 5 5 4 3 4 5 5 4 4 3 4 5 5 4 3 3 2 2 2 1 1 1 1 1 1 0 -0 -1 -1 -1 -0 -0
5 5 5 5 5 5 5 4 4 4 4 4 5 4 4 3 3 3 4 4 4 4 4 4 5 5 5 4 3 2 2 2 1 1 1 1 1 1 0 -1 -2 -2 -2 -1 -1
6 6 5 5 5 4 4 4 4 4 4 4 3 3 3 2 2 2 3 4 4 4 4 3 4 5 5 4 3 2 2 1 1 1 1 1 1 1 0 -1 -2 -3 -3 -2 -2
6 6 5 5 4 4 4 4 4 3 3 3 3 2 2 2 2 2 3 4 4 4 4 3 4 4 4 4 3 2 1 1 1 1 1 1 1 0 -0 -1 -2 -3 -3 -2 -2